Вернуться в каталог

SKYSAT C8

АктивенНаукаSSO
NORAD 42990·PAYLOAD·🇺🇸 United States

Запущен Oct 31, 2017 с Vandenberg Space Force Base

Loading…

Ближайшие Пролёты (ближайшие 24 часа)

TLE

СвежийSource: CelesTrak SupGP

Эпоха: Sep 14, 2026, 16:50 UTC

1 42990C 17068D   26257.70155093  .00012956  00000+0  34159-3 0  2572
2 42990  97.4652  35.7327 0001524  92.1746  74.4227 15.38535072    13

Отслеживайте SKYSAT C8 в реальном времени с AllMySat

Download on the App Store